THOR ABLESTAR DEB, 17648

Orbit data source: Space-Track

THOR ABLESTAR DEB, 17648 is space debris in LEO originally from a launch on Thu, 29 Jun 1961 UTC launched from the Air Force Eastern Test Range (AFETR). Debris objects in space refer to the collection of defunct objects orbiting the Earth. Examples of debris include non-operational satellites, rocket bodies, and fragments generated from explosions, collisions, or faulty payload assembly.

Loading next visibility...
Identifier
17648, 1961-015LH
Orbit
LEO
Country
Flag of USUS
Related business
Manufacturer
Unknown
Mission
Spacecraft
Bus & Motor
Unknown
Mass
Unknown
Launch date (UTC)
1961-06-29 (65 years ago)
Launch vehicle
Unknown
Launch site
Air Force Eastern Test Range (AFETR)
Object type
Payload
Rocket body
Debris
Shape & HBR
Unknown shape, 0.1 m
Radar Cross Section
Small (<0.1 m²)

Expand to show TLE details & history
Last TLE update: 1 day ago

TLE from 1 day ago
0 THOR ABLESTAR DEB
1 17648U 61015LH  26036.21044603  .00008078  00000-0  31667-2 0  9994
2 17648  65.7306 121.0304 0066582 221.7613 137.8385 14.28644658738264
Epoch: 2026-02-05T05:03Z
TLE epoch observation values (Epoch: 2026-02-05T05:03:02.536Z)
Latitude
-0.00001°
Longitude
-90.09611°
Altitude
833.848 km
Speed
7.418 km/s
True Right ascension
08h 04m 07s
True Declination
0° 00' 00"
Sunlit
Object was in full shadow at epoch
Visualization orbit readout
Latitude
Unknown
Longitude
Unknown
Altitude
Unknown
Speed
Unknown
Apparent Right ascension
Unknown
Apparent Declination
Unknown
Sunlit
N/A
Visualization observer readout
Local Sidereal Time
17:44:07
Azimuth
Unknown
Elevation
Unknown
Doppler factor
Unknown
Orbital elements
Apogee altitude
842.514 km
Perigee altitude
746.997 km
Semi-major axis
7,172.893 km
Eccentricity
0.00666
Inclination
65.7306°
RAAN
121.0304°
Arg. of periapsis
221.7613°
True anomaly
138.34748°
Mean anomaly
137.8385°
Eccentric anomaly
138.0933°
Mean motion
3.57274 °/min
Orbital period
100.76 mins
BSTAR
0.0031667
Loading maneuver chart data...
Computing Atmospheric mass density...

Documentation

Showing up to 5 results
|